Regional Weather Roundup
Issued by NWS

Home | Current Version | Previous Version | Text Only | Print | Product List | Glossary On
Versions: 1 2 3 4 5 6 7 8 9 10 11 12 13 14 15 16 17 18 19 20 21 22 23 24 25 26 27 28 29 30 31 32 33 34 35 36 37 38 39 40 41 42 43 44 45 46 47 48 49 50
314
ASUS43 KBIS 240910
RWRND

NORTH DAKOTA REGIONAL WEATHER ROUNDUP
NATIONAL WEATHER SERVICE BISMARCK ND
400 AM CDT SUN SEP 24 2017

NOTE: "FAIR" INDICATES FEW OR NO CLOUDS BELOW 12,000 FEET WITH NO
SIGNIFICANT WEATHER AND/OR OBSTRUCTIONS TO VISIBILITY.


NDZ001>003-009>011-017-241000-
NORTHWEST NORTH DAKOTA

CITY           SKY/WX    TMP DP  RH WIND       PRES   REMARKS
WILLISTON      LGT RAIN  45  42  89 NW7       30.11F
MINOT          LGT RAIN  47  46  97 N10       30.04F
MINOT AFB      LGT RAIN  46  45  97 N12       30.03F
$$

NDZ018>021-031>035-040>046-241000-
SOUTHWEST NORTH DAKOTA

CITY           SKY/WX    TMP DP  RH WIND       PRES   REMARKS
BISMARCK       LGT RAIN  49  48  97 N12       29.99F
DICKINSON      LGT RAIN  44  44 100 N10       30.03R
GARRISON         N/A     46  46 100 N5        30.02F
HETTINGER ARPT LGT RAIN  44  42  93 N10       30.02R
$$

NDZ004>008-012>016-024-026-027-054-241000-
NORTHEAST NORTH DAKOTA

CITY           SKY/WX    TMP DP  RH WIND       PRES   REMARKS
GRAND FORKS    LGT RAIN  53  53 100 N13       29.94S FOG
DEVILS LAKE    LGT RAIN  49  48  97 N14       30.00F
$$

NDZ022-023-025-028>030-036>039-047>053-241000-
SOUTHEAST NORTH DAKOTA

CITY           SKY/WX    TMP DP  RH WIND       PRES   REMARKS
FARGO          RAIN      57  56  96 N7        29.88F
JAMESTOWN      RAIN      50  49  96 N13       29.93F
$$





USA.gov is the U.S. government's official web portal to all federal, state and local government web resources and services.